Flag for Vietnam Weather past 2 weeks in Ho Chi Minh, Vietnam

Now
86 °F

Passing clouds.


Feels Like: 97 °F
Forecast: 81 / 95 °F
Wind: 7 mph from Southwest

Location: Ho Chi Minh

Current Time: May 30, 2015 at 8:05:49 AM

Latest Report: May 30, 2015 at 7:30 AM


Visibility: N/A

Pressure: 29.86 "Hg

Humidity: 75%

Dew point: 77 °F

Location of Ho Chi MinhLocation

Historic Weather in Ho Chi Minh — Graph

°F

Ho Chi Minh temperature yesterday

Maximum temperature yesterday: 95 °F (at 12:00 PM)
Minimum temperature yesterday: 82 °F (at 12:00 AM)
Average temperature yesterday: 86 °F

Past Weeks' High & Low Weather Summary

 TemperatureHumidityPressure
High99 °F (May 19, 2:00 PM)94% (May 23, 2:30 AM)29.92 "Hg (May 23, 2:30 AM)
Low79 °F (May 17, 8:30 PM)34% (May 18, 1:30 PM)29.68 "Hg (May 16, 4:30 PM)
Average87 °F69%29.79 "Hg
* Reported May 15 6:00 AM — May 30 6:30 AM, Ho Chi Minh, Weather by CustomWeather, © 2015

Note: Actual official high and low records may vary slightly from our data, if they occured in-between our weather recording intervals... More about our weather records

Advertising

Ho Chi Minh weather history for previous 24 hours

 ConditionsComfort  
Time TempWeatherWind HumidityBarometerVisibility
6:30 AM
Sat, May 30
82 °FScattered clouds.5 mph84%29.83 "HgN/A
6:00 AM82 °FScattered clouds.5 mph84%29.80 "HgN/A
5:30 AM81 °FScattered clouds.5 mph89%29.80 "HgN/A
5:00 AM82 °FPassing clouds.6 mph84%29.80 "HgN/A
4:30 AM82 °FPassing clouds.6 mph79%29.80 "HgN/A
3:30 AM82 °FPassing clouds.7 mph79%29.80 "HgN/A
3:00 AM82 °FPassing clouds.7 mph79%29.80 "HgN/A
2:30 AM82 °FPassing clouds.7 mph79%29.80 "HgN/A
2:00 AM82 °FPassing clouds.5 mph79%29.80 "HgN/A
1:30 AM82 °FPassing clouds.6 mph79%29.80 "HgN/A
1:00 AM82 °FPassing clouds.7 mph79%29.80 "HgN/A
12:30 AM82 °FPassing clouds.8 mph79%29.80 "HgN/A
12:00 AM82 °FPassing clouds.6 mph79%29.83 "HgN/A
11:30 PM
Fri, May 29
82 °FPassing clouds.8 mph79%29.83 "HgN/A
11:00 PM82 °FPassing clouds.9 mph79%29.83 "HgN/A
10:00 PM84 °FPassing clouds.8 mph70%29.80 "HgN/A
9:30 PM84 °FPassing clouds.8 mph70%29.80 "HgN/A
7:00 PM86 °FPassing clouds.12 mph62%29.74 "HgN/A
6:30 PM86 °FPassing clouds.6 mph70%29.74 "HgN/A
6:00 PM86 °FPartly sunny.7 mph70%29.74 "HgN/A
5:30 PM88 °FPartly sunny.8 mph66%29.74 "HgN/A
4:30 PM86 °FScattered clouds.6 mph70%29.74 "HgN/A
4:00 PM86 °FScattered clouds.5 mph70%29.71 "HgN/A
3:30 PM86 °FScattered clouds.6 mph70%29.74 "HgN/A
3:00 PM84 °FScattered clouds.6 mph74%29.74 "HgN/A
2:30 PM86 °FThunderstorms. Broken clouds.8 mph70%29.74 "Hg5 mi
2:00 PM91 °FThunderstorms. Scattered clouds.12 mph52%29.74 "Hg5 mi
1:30 PM93 °FThunderstorms. Scattered clouds.16 mph53%29.74 "HgN/A
1:00 PM95 °FPartly sunny.13 mph56%29.74 "HgN/A
12:30 PM95 °FScattered clouds.9 mph56%29.74 "HgN/A
12:00 PM95 °FPartly sunny.8 mph56%29.77 "HgN/A
11:30 AM93 °FPartly sunny.8 mph53%29.80 "HgN/A
11:00 AM91 °FPartly sunny.8 mph56%29.80 "HgN/A
10:30 AM91 °FPartly sunny.10 mph59%29.80 "HgN/A
10:00 AM90 °FPartly sunny.9 mph63%29.83 "HgN/A
9:30 AM88 °FPartly sunny.8 mph66%29.83 "HgN/A
9:00 AM88 °FScattered clouds.9 mph70%29.83 "HgN/A
8:30 AM86 °FScattered clouds.10 mph75%29.83 "HgN/A
8:00 AM84 °FPassing clouds.9 mph74%29.83 "HgN/A
Weather by CustomWeather, © 2015

See weather overviewHow to use our weather pages